Year,Month,Day,Hour,Minute,Value (Times are PST for temperature in C)
2020,12,04,00,00,6.40
2020,12,04,00,01,6.40
2020,12,04,00,02,6.30
2020,12,04,00,03,6.30
2020,12,04,00,04,6.30
2020,12,04,00,05,6.30
2020,12,04,00,06,6.30
2020,12,04,00,07,6.30
2020,12,04,00,08,6.30
2020,12,04,00,09,6.30
2020,12,04,00,10,6.30
2020,12,04,00,11,6.30
2020,12,04,00,12,6.30
2020,12,04,00,13,6.20
2020,12,04,00,14,6.20
2020,12,04,00,15,6.20
2020,12,04,00,16,6.20
2020,12,04,00,17,6.20
2020,12,04,00,18,6.20
2020,12,04,00,19,6.20
2020,12,04,00,20,6.10
2020,12,04,00,21,6.10
2020,12,04,00,22,6.10
2020,12,04,00,23,6.00
2020,12,04,00,24,6.00
2020,12,04,00,25,6.00
2020,12,04,00,26,5.90
2020,12,04,00,27,5.90
2020,12,04,00,28,5.90
2020,12,04,00,29,5.80
2020,12,04,00,30,5.80
2020,12,04,00,31,5.70
2020,12,04,00,32,5.70
2020,12,04,00,33,5.70
2020,12,04,00,34,5.70
2020,12,04,00,35,5.70
2020,12,04,00,36,5.60
2020,12,04,00,37,5.60
2020,12,04,00,38,5.50
2020,12,04,00,39,5.50
2020,12,04,00,40,5.50
2020,12,04,00,41,5.40
2020,12,04,00,42,5.40
2020,12,04,00,43,5.30
2020,12,04,00,44,5.30
2020,12,04,00,45,5.30
2020,12,04,00,46,5.30
2020,12,04,00,47,5.30
2020,12,04,00,48,5.30
2020,12,04,00,49,5.30
2020,12,04,00,50,5.20
2020,12,04,00,51,5.20
2020,12,04,00,52,5.20
2020,12,04,00,53,5.10
2020,12,04,00,54,5.10
2020,12,04,00,55,5.10
2020,12,04,00,56,5.10
2020,12,04,00,57,5.10
2020,12,04,00,58,5.10
2020,12,04,00,59,5.00
2020,12,04,01,00,4.90
2020,12,04,01,01,4.90
2020,12,04,01,02,4.90
2020,12,04,01,03,4.90
2020,12,04,01,04,4.80
2020,12,04,01,05,4.80
2020,12,04,01,06,4.80
2020,12,04,01,07,4.70
2020,12,04,01,08,4.70
2020,12,04,01,09,4.70
2020,12,04,01,10,4.60
2020,12,04,01,11,4.60
2020,12,04,01,12,4.60
2020,12,04,01,13,4.60
2020,12,04,01,14,4.60
2020,12,04,01,15,4.50
2020,12,04,01,16,4.50
2020,12,04,01,17,4.40
2020,12,04,01,18,4.40
2020,12,04,01,19,4.30
2020,12,04,01,20,4.30
2020,12,04,01,21,4.30
2020,12,04,01,22,4.20
2020,12,04,01,23,4.20
2020,12,04,01,24,4.20
2020,12,04,01,25,4.20
2020,12,04,01,26,4.20
2020,12,04,01,27,4.20
2020,12,04,01,28,4.10
2020,12,04,01,29,4.10
2020,12,04,01,30,4.10
2020,12,04,01,31,4.00
2020,12,04,01,32,4.00
2020,12,04,01,33,4.00
2020,12,04,01,34,4.00
2020,12,04,01,35,3.90
2020,12,04,01,36,3.90
2020,12,04,01,37,3.90
2020,12,04,01,38,3.80
2020,12,04,01,39,3.80
2020,12,04,01,40,3.80
2020,12,04,01,41,3.80
2020,12,04,01,42,3.80
2020,12,04,01,43,3.80
2020,12,04,01,44,3.80
2020,12,04,01,45,3.80
2020,12,04,01,46,3.80
2020,12,04,01,47,3.70
2020,12,04,01,48,3.70
2020,12,04,01,49,3.70
2020,12,04,01,50,3.60
2020,12,04,01,51,3.60
2020,12,04,01,52,3.60
2020,12,04,01,53,3.50
2020,12,04,01,54,3.50
2020,12,04,01,55,3.50
2020,12,04,01,56,3.40
2020,12,04,01,57,3.40
2020,12,04,01,58,3.40
2020,12,04,01,59,3.30
2020,12,04,02,00,3.30
2020,12,04,02,01,3.30
2020,12,04,02,02,3.30
2020,12,04,02,03,3.30
2020,12,04,02,04,3.30
2020,12,04,02,05,3.20
2020,12,04,02,06,3.20
2020,12,04,02,07,3.20
2020,12,04,02,08,3.20
2020,12,04,02,09,3.20
2020,12,04,02,10,3.10
2020,12,04,02,11,3.10
2020,12,04,02,12,3.10
2020,12,04,02,13,3.10
2020,12,04,02,14,3.10
2020,12,04,02,15,3.10
2020,12,04,02,16,3.10
2020,12,04,02,17,3.10
2020,12,04,02,18,3.10
2020,12,04,02,19,3.00
2020,12,04,02,20,2.90
2020,12,04,02,21,2.90
2020,12,04,02,22,2.90
2020,12,04,02,23,2.90
2020,12,04,02,24,2.90
2020,12,04,02,25,2.80
2020,12,04,02,26,2.80
2020,12,04,02,27,2.80
2020,12,04,02,28,2.80
2020,12,04,02,29,2.80
2020,12,04,02,30,2.80
2020,12,04,02,31,2.80
2020,12,04,02,32,2.80
2020,12,04,02,33,2.80
2020,12,04,02,34,2.80
2020,12,04,02,35,2.80
2020,12,04,02,36,2.80
2020,12,04,02,37,2.80
2020,12,04,02,38,2.80
2020,12,04,02,39,2.80
2020,12,04,02,40,2.80
2020,12,04,02,41,2.80
2020,12,04,02,42,2.70
2020,12,04,02,43,2.70
2020,12,04,02,44,2.70
2020,12,04,02,45,2.70
2020,12,04,02,46,2.70
2020,12,04,02,47,2.70
2020,12,04,02,48,2.60
2020,12,04,02,49,2.60
2020,12,04,02,50,2.60
2020,12,04,02,51,2.60
2020,12,04,02,52,2.50
2020,12,04,02,53,2.50
2020,12,04,02,54,2.50
2020,12,04,02,55,2.40
2020,12,04,02,56,2.40
2020,12,04,02,57,2.40
2020,12,04,02,58,2.40
2020,12,04,02,59,2.40
2020,12,04,03,00,2.40
2020,12,04,03,01,2.40
2020,12,04,03,02,2.40
2020,12,04,03,03,2.40
2020,12,04,03,04,2.40
2020,12,04,03,05,2.40
2020,12,04,03,06,2.40
2020,12,04,03,07,2.30
2020,12,04,03,08,2.30
2020,12,04,03,09,2.30
2020,12,04,03,10,2.20
2020,12,04,03,11,2.20
2020,12,04,03,12,2.20
2020,12,04,03,13,2.20
2020,12,04,03,14,2.20
2020,12,04,03,15,2.30
2020,12,04,03,16,2.30
2020,12,04,03,17,2.20
2020,12,04,03,18,2.20
2020,12,04,03,19,2.20
2020,12,04,03,20,2.20
2020,12,04,03,21,2.20
2020,12,04,03,22,2.20
2020,12,04,03,23,2.10
2020,12,04,03,24,2.10
2020,12,04,03,25,2.10
2020,12,04,03,26,2.00
2020,12,04,03,27,2.00
2020,12,04,03,28,2.00
2020,12,04,03,29,2.00
2020,12,04,03,30,1.90
2020,12,04,03,31,1.90
2020,12,04,03,32,1.90
2020,12,04,03,33,1.90
2020,12,04,03,34,1.90
2020,12,04,03,35,1.90
2020,12,04,03,36,1.90
2020,12,04,03,37,1.90
2020,12,04,03,38,1.90
2020,12,04,03,39,1.90
2020,12,04,03,40,1.90
2020,12,04,03,41,1.90
2020,12,04,03,42,1.90
2020,12,04,03,43,1.90
2020,12,04,03,44,1.80
2020,12,04,03,45,1.80
2020,12,04,03,46,1.80
2020,12,04,03,47,1.80
2020,12,04,03,48,1.80
2020,12,04,03,49,1.80
2020,12,04,03,50,1.80
2020,12,04,03,51,1.80
2020,12,04,03,52,1.80
2020,12,04,03,53,1.80
2020,12,04,03,54,1.80
2020,12,04,03,55,1.80
2020,12,04,03,56,1.80
2020,12,04,03,57,1.80
2020,12,04,03,58,1.80
2020,12,04,03,59,1.80
2020,12,04,04,00,1.80
2020,12,04,04,01,1.80
2020,12,04,04,02,1.80
2020,12,04,04,03,1.80
2020,12,04,04,04,1.80
2020,12,04,04,05,1.80
2020,12,04,04,06,1.80
2020,12,04,04,07,1.80
2020,12,04,04,08,1.80
2020,12,04,04,09,1.80
2020,12,04,04,10,1.80
2020,12,04,04,11,1.80
2020,12,04,04,12,1.80
2020,12,04,04,13,1.80
2020,12,04,04,14,1.80
2020,12,04,04,15,1.80
2020,12,04,04,16,1.80
2020,12,04,04,17,1.80
2020,12,04,04,18,1.80
2020,12,04,04,19,1.80
2020,12,04,04,20,1.80
2020,12,04,04,21,1.80
2020,12,04,04,22,1.80
2020,12,04,04,23,1.80
2020,12,04,04,24,1.80
2020,12,04,04,25,1.80
2020,12,04,04,26,1.80
2020,12,04,04,27,1.80
2020,12,04,04,28,1.80
2020,12,04,04,29,1.80
2020,12,04,04,30,1.70
2020,12,04,04,31,1.70
2020,12,04,04,32,1.70
2020,12,04,04,33,1.70
2020,12,04,04,34,1.70
2020,12,04,04,35,1.70
2020,12,04,04,36,1.60
2020,12,04,04,37,1.60
2020,12,04,04,38,1.60
2020,12,04,04,39,1.60
2020,12,04,04,40,1.60
2020,12,04,04,41,1.70
2020,12,04,04,42,1.70
2020,12,04,04,43,1.70
2020,12,04,04,44,1.70
2020,12,04,04,45,1.70
2020,12,04,04,46,1.70
2020,12,04,04,47,1.70
2020,12,04,04,48,1.60
2020,12,04,04,49,1.60
2020,12,04,04,50,1.50
2020,12,04,04,51,1.50
2020,12,04,04,52,1.50
2020,12,04,04,53,1.40
2020,12,04,04,54,1.40
2020,12,04,04,55,1.40
2020,12,04,04,56,1.40
2020,12,04,04,57,1.40
2020,12,04,04,58,1.40
2020,12,04,04,59,1.40
2020,12,04,05,00,1.40
2020,12,04,05,01,1.30
2020,12,04,05,02,1.30
2020,12,04,05,03,1.30
2020,12,04,05,04,1.30
2020,12,04,05,05,1.40
2020,12,04,05,06,1.40
2020,12,04,05,07,1.40
2020,12,04,05,08,1.40
2020,12,04,05,09,1.40
2020,12,04,05,10,1.40
2020,12,04,05,11,1.30
2020,12,04,05,12,1.30
2020,12,04,05,13,1.30
2020,12,04,05,14,1.30
2020,12,04,05,15,1.30
2020,12,04,05,16,1.30
2020,12,04,05,17,1.30
2020,12,04,05,18,1.30
2020,12,04,05,19,1.30
2020,12,04,05,20,1.30
2020,12,04,05,21,1.30
2020,12,04,05,22,1.30
2020,12,04,05,23,1.30
2020,12,04,05,24,1.30
2020,12,04,05,25,1.30
2020,12,04,05,26,1.30
2020,12,04,05,27,1.30
2020,12,04,05,28,1.30
2020,12,04,05,29,1.30
2020,12,04,05,30,1.30
2020,12,04,05,31,1.30
2020,12,04,05,32,1.20
2020,12,04,05,33,1.20
2020,12,04,05,34,1.20
2020,12,04,05,35,1.20
2020,12,04,05,36,1.20
2020,12,04,05,37,1.10
2020,12,04,05,38,1.10
2020,12,04,05,39,1.10
2020,12,04,05,40,1.10
2020,12,04,05,41,1.10
2020,12,04,05,42,1.10
2020,12,04,05,43,1.10
2020,12,04,05,44,1.10
2020,12,04,05,45,1.10
2020,12,04,05,46,1.10
2020,12,04,05,47,1.10
2020,12,04,05,48,1.10
2020,12,04,05,49,1.10
2020,12,04,05,50,1.00
2020,12,04,05,51,1.00
2020,12,04,05,52,1.00
2020,12,04,05,53,1.00
2020,12,04,05,54,1.00
2020,12,04,05,55,1.10
2020,12,04,05,56,1.10
2020,12,04,05,57,1.10
2020,12,04,05,58,1.10
2020,12,04,05,59,1.10
2020,12,04,06,00,1.10
2020,12,04,06,01,1.10
2020,12,04,06,02,1.10
2020,12,04,06,03,1.10
2020,12,04,06,04,1.10
2020,12,04,06,05,1.10
2020,12,04,06,06,1.10
2020,12,04,06,07,1.10
2020,12,04,06,08,1.10
2020,12,04,06,09,1.10
2020,12,04,06,10,1.10
2020,12,04,06,11,1.10
2020,12,04,06,12,1.20
2020,12,04,06,13,1.20
2020,12,04,06,14,1.20
2020,12,04,06,15,1.20
2020,12,04,06,16,1.20
2020,12,04,06,17,1.10
2020,12,04,06,18,1.10
2020,12,04,06,19,1.10
2020,12,04,06,20,1.10
2020,12,04,06,21,1.10
2020,12,04,06,22,1.10
2020,12,04,06,23,1.10
2020,12,04,06,24,1.10
2020,12,04,06,25,1.00
2020,12,04,06,26,1.00
2020,12,04,06,27,1.00
2020,12,04,06,28,1.00
2020,12,04,06,29,1.00
2020,12,04,06,30,1.00
2020,12,04,06,31,1.00
2020,12,04,06,32,1.00
2020,12,04,06,33,1.00
2020,12,04,06,34,1.00
2020,12,04,06,35,0.90
2020,12,04,06,36,0.90
2020,12,04,06,37,0.90
2020,12,04,06,38,0.90
2020,12,04,06,39,0.90
2020,12,04,06,40,0.80
2020,12,04,06,41,0.80
2020,12,04,06,42,0.80
2020,12,04,06,43,0.80
2020,12,04,06,44,0.80
2020,12,04,06,45,0.80
2020,12,04,06,46,0.80
2020,12,04,06,47,0.80
2020,12,04,06,48,0.80
2020,12,04,06,49,0.80
2020,12,04,06,50,0.80
2020,12,04,06,51,0.80
2020,12,04,06,52,0.80
2020,12,04,06,53,0.80
2020,12,04,06,54,0.80
2020,12,04,06,55,0.80
2020,12,04,06,56,0.80
2020,12,04,06,57,0.80
2020,12,04,06,58,0.80
2020,12,04,06,59,0.80
2020,12,04,07,00,0.80
2020,12,04,07,01,0.80
2020,12,04,07,02,0.80
2020,12,04,07,03,0.80
2020,12,04,07,04,0.80
2020,12,04,07,05,0.80
2020,12,04,07,06,0.80
2020,12,04,07,07,0.80
2020,12,04,07,08,0.80
2020,12,04,07,09,0.80
2020,12,04,07,10,0.80
2020,12,04,07,11,0.80
2020,12,04,07,12,0.80
2020,12,04,07,13,0.80
2020,12,04,07,14,0.80
2020,12,04,07,15,0.80
2020,12,04,07,16,0.80
2020,12,04,07,17,0.80
2020,12,04,07,18,0.80
2020,12,04,07,19,0.80
2020,12,04,07,20,0.80
2020,12,04,07,21,0.80
2020,12,04,07,22,0.80
2020,12,04,07,23,0.80
2020,12,04,07,24,0.80
2020,12,04,07,25,0.80
2020,12,04,07,26,0.80
2020,12,04,07,27,0.80
2020,12,04,07,28,0.90
2020,12,04,07,29,0.90
2020,12,04,07,30,0.90
2020,12,04,07,31,0.90
2020,12,04,07,32,0.80
2020,12,04,07,33,0.80
2020,12,04,07,34,0.80
2020,12,04,07,35,0.80
2020,12,04,07,36,0.80
2020,12,04,07,37,0.80
2020,12,04,07,38,0.80
2020,12,04,07,39,0.80
2020,12,04,07,40,0.80
2020,12,04,07,41,0.80
2020,12,04,07,42,0.80
2020,12,04,07,43,0.90
2020,12,04,07,44,0.90
2020,12,04,07,45,0.90
2020,12,04,07,46,1.00
2020,12,04,07,47,1.00
2020,12,04,07,48,1.00
2020,12,04,07,49,1.00
2020,12,04,07,50,1.00
2020,12,04,07,51,1.10
2020,12,04,07,52,1.10
2020,12,04,07,53,1.10
2020,12,04,07,54,1.20
2020,12,04,07,55,1.20
2020,12,04,07,56,1.20
2020,12,04,07,57,1.20
2020,12,04,07,58,1.20
2020,12,04,07,59,1.10
2020,12,04,08,00,1.10
2020,12,04,08,01,1.10
2020,12,04,08,02,1.10
2020,12,04,08,03,1.10
2020,12,04,08,04,1.00
2020,12,04,08,05,1.00
2020,12,04,08,06,1.00
2020,12,04,08,07,1.00
2020,12,04,08,08,1.00
2020,12,04,08,09,1.00
2020,12,04,08,10,1.00
2020,12,04,08,11,1.00
2020,12,04,08,12,1.00
2020,12,04,08,13,1.10
2020,12,04,08,14,1.10
2020,12,04,08,15,1.10
2020,12,04,08,16,1.10
2020,12,04,08,17,1.10
2020,12,04,08,18,1.10
2020,12,04,08,19,1.10
2020,12,04,08,20,1.10
2020,12,04,08,21,1.10
2020,12,04,08,22,1.20
2020,12,04,08,23,1.20
2020,12,04,08,24,1.20
2020,12,04,08,25,1.20
2020,12,04,08,26,1.20
2020,12,04,08,27,1.20
2020,12,04,08,28,1.20
2020,12,04,08,29,1.20
2020,12,04,08,30,1.20
2020,12,04,08,31,1.30
2020,12,04,08,32,1.30
2020,12,04,08,33,1.30
2020,12,04,08,34,1.30
2020,12,04,08,35,1.30
2020,12,04,08,36,1.40
2020,12,04,08,37,1.40
2020,12,04,08,38,1.40
2020,12,04,08,39,1.50
2020,12,04,08,40,1.50
2020,12,04,08,41,1.60
2020,12,04,08,42,1.70
2020,12,04,08,43,1.70
2020,12,04,08,44,1.80
2020,12,04,08,45,1.80
2020,12,04,08,46,1.90
2020,12,04,08,47,1.90
2020,12,04,08,48,2.00
2020,12,04,08,49,2.00
2020,12,04,08,50,2.10
2020,12,04,08,51,2.10
2020,12,04,08,52,2.20
2020,12,04,08,53,2.20
2020,12,04,08,54,2.20
2020,12,04,08,55,2.20
2020,12,04,08,56,2.20
2020,12,04,08,57,2.20
2020,12,04,08,58,2.30
2020,12,04,08,59,2.30
2020,12,04,09,00,2.30
2020,12,04,09,01,2.30
2020,12,04,09,02,2.40
2020,12,04,09,03,2.40
2020,12,04,09,04,2.50
2020,12,04,09,05,2.50
2020,12,04,09,06,2.60
2020,12,04,09,07,2.60
2020,12,04,09,08,2.70
2020,12,04,09,09,2.80
2020,12,04,09,10,2.90
2020,12,04,09,11,3.00
2020,12,04,09,12,3.10
2020,12,04,09,13,3.20
2020,12,04,09,14,3.30
2020,12,04,09,15,3.30
2020,12,04,09,16,3.40
2020,12,04,09,17,3.50
2020,12,04,09,18,3.50
2020,12,04,09,19,3.60
2020,12,04,09,20,3.70
2020,12,04,09,21,3.70
2020,12,04,09,22,3.80
2020,12,04,09,23,3.80
2020,12,04,09,24,3.80
2020,12,04,09,25,3.90
2020,12,04,09,26,4.00
2020,12,04,09,27,4.00
2020,12,04,09,28,4.10
2020,12,04,09,29,4.20
2020,12,04,09,30,4.20
2020,12,04,09,31,4.30
2020,12,04,09,32,4.40
2020,12,04,09,33,4.50
2020,12,04,09,34,4.50
2020,12,04,09,35,4.50
2020,12,04,09,36,4.60
2020,12,04,09,37,4.60
2020,12,04,09,38,4.60
2020,12,04,09,39,4.60
2020,12,04,09,40,4.70
2020,12,04,09,41,4.70
2020,12,04,09,42,4.80
2020,12,04,09,43,4.80
2020,12,04,09,44,4.80
2020,12,04,09,45,4.90
2020,12,04,09,46,4.90
2020,12,04,09,47,5.00
2020,12,04,09,48,5.10
2020,12,04,09,49,5.10
2020,12,04,09,50,5.10
2020,12,04,09,51,5.20
2020,12,04,09,52,5.30
2020,12,04,09,53,5.30
2020,12,04,09,54,5.30
2020,12,04,09,55,5.40
2020,12,04,09,56,5.50
2020,12,04,09,57,5.60
2020,12,04,09,58,5.60
2020,12,04,09,59,5.70
2020,12,04,10,00,5.70
2020,12,04,10,01,5.70
2020,12,04,10,02,5.80
2020,12,04,10,03,5.90
2020,12,04,10,04,5.90
2020,12,04,10,05,6.00
2020,12,04,10,06,6.00
2020,12,04,10,07,6.20
2020,12,04,10,08,6.20
2020,12,04,10,09,6.30
2020,12,04,10,10,6.30
2020,12,04,10,11,6.40
2020,12,04,10,12,6.50
2020,12,04,10,13,6.60
2020,12,04,10,14,6.70
2020,12,04,10,15,6.70
2020,12,04,10,16,6.80
2020,12,04,10,17,6.80
2020,12,04,10,18,6.90
2020,12,04,10,19,7.00
2020,12,04,10,20,7.10
2020,12,04,10,21,7.10
2020,12,04,10,22,7.20
2020,12,04,10,23,7.30
2020,12,04,10,24,7.30
2020,12,04,10,25,7.40
2020,12,04,10,26,7.60
2020,12,04,10,27,7.60
2020,12,04,10,28,7.70
2020,12,04,10,29,7.80
2020,12,04,10,30,7.90
2020,12,04,10,31,7.90
2020,12,04,10,32,8.00
2020,12,04,10,33,8.10
2020,12,04,10,34,8.10
2020,12,04,10,35,8.20
2020,12,04,10,36,8.20
2020,12,04,10,37,8.20
2020,12,04,10,38,8.20
2020,12,04,10,39,8.10
2020,12,04,10,40,8.10
2020,12,04,10,41,8.10
2020,12,04,10,42,8.10
2020,12,04,10,43,8.20
2020,12,04,10,44,8.20
2020,12,04,10,45,8.20
2020,12,04,10,46,8.30
2020,12,04,10,47,8.40
2020,12,04,10,48,8.50
2020,12,04,10,49,8.50
2020,12,04,10,50,8.60
2020,12,04,10,51,8.60
2020,12,04,10,52,8.70
2020,12,04,10,53,8.70
2020,12,04,10,54,8.70
2020,12,04,10,55,8.70
2020,12,04,10,56,8.80
2020,12,04,10,57,8.90
2020,12,04,10,58,8.90
2020,12,04,10,59,8.90
2020,12,04,11,00,9.00
2020,12,04,11,01,9.00
2020,12,04,11,02,9.10
2020,12,04,11,03,9.10
2020,12,04,11,04,9.20
2020,12,04,11,05,9.20
2020,12,04,11,06,9.20
2020,12,04,11,07,9.20
2020,12,04,11,08,9.30
2020,12,04,11,09,9.30
2020,12,04,11,10,9.40
2020,12,04,11,11,9.40
2020,12,04,11,12,9.50
2020,12,04,11,13,9.60
2020,12,04,11,14,9.70
2020,12,04,11,15,9.70
2020,12,04,11,16,9.80
2020,12,04,11,17,9.80
2020,12,04,11,18,9.80
2020,12,04,11,19,9.80
2020,12,04,11,20,9.80
2020,12,04,11,21,9.90
2020,12,04,11,22,9.90
2020,12,04,11,23,10.00
2020,12,04,11,24,10.10
2020,12,04,11,25,10.20
2020,12,04,11,26,10.30
2020,12,04,11,27,10.30
2020,12,04,11,28,10.30
2020,12,04,11,29,10.30
2020,12,04,11,30,10.40
2020,12,04,11,31,10.40
2020,12,04,11,32,10.40
2020,12,04,11,33,10.40
2020,12,04,11,34,10.40
2020,12,04,11,35,10.30
2020,12,04,11,36,10.30
2020,12,04,11,37,10.30
2020,12,04,11,38,10.40
2020,12,04,11,39,10.40
2020,12,04,11,40,10.30
2020,12,04,11,41,10.30
2020,12,04,11,42,10.30
2020,12,04,11,43,10.40
2020,12,04,11,44,10.40
2020,12,04,11,45,10.40
2020,12,04,11,46,10.50
2020,12,04,11,47,10.60
2020,12,04,11,48,10.60
2020,12,04,11,49,10.60
2020,12,04,11,50,10.60
2020,12,04,11,51,10.60
2020,12,04,11,52,10.60
2020,12,04,11,53,10.60
2020,12,04,11,54,10.60
2020,12,04,11,55,10.60
2020,12,04,11,56,10.60
2020,12,04,11,57,10.70
2020,12,04,11,58,10.70
2020,12,04,11,59,10.60
2020,12,04,12,00,10.60
2020,12,04,12,01,10.60
2020,12,04,12,02,10.60
2020,12,04,12,03,10.60
2020,12,04,12,04,10.60
2020,12,04,12,05,10.60
2020,12,04,12,06,10.70
2020,12,04,12,07,10.70
2020,12,04,12,08,10.70
2020,12,04,12,09,10.70
2020,12,04,12,10,10.70
2020,12,04,12,11,10.70
2020,12,04,12,12,10.70
2020,12,04,12,13,10.70
2020,12,04,12,14,10.80
2020,12,04,12,15,10.80
2020,12,04,12,16,10.80
2020,12,04,12,17,10.80
2020,12,04,12,18,10.90
2020,12,04,12,19,10.90
2020,12,04,12,20,10.90
2020,12,04,12,21,11.00
2020,12,04,12,22,11.10
2020,12,04,12,23,11.10
2020,12,04,12,24,11.10
2020,12,04,12,25,11.10
2020,12,04,12,26,11.20
2020,12,04,12,27,11.20
2020,12,04,12,28,11.20
2020,12,04,12,29,11.20
2020,12,04,12,30,11.20
2020,12,04,12,31,11.20
2020,12,04,12,32,11.30
2020,12,04,12,33,11.30
2020,12,04,12,34,11.30
2020,12,04,12,35,11.40
2020,12,04,12,36,11.40
2020,12,04,12,37,11.40
2020,12,04,12,38,11.40
2020,12,04,12,39,11.40
2020,12,04,12,40,11.50
2020,12,04,12,41,11.60
2020,12,04,12,42,11.60
2020,12,04,12,43,11.70
2020,12,04,12,44,11.70
2020,12,04,12,45,11.70
2020,12,04,12,46,11.60
2020,12,04,12,47,11.60
2020,12,04,12,48,11.60
2020,12,04,12,49,11.60
2020,12,04,12,50,11.50
2020,12,04,12,51,11.40
2020,12,04,12,52,11.40
2020,12,04,12,53,11.40
2020,12,04,12,54,11.40
2020,12,04,12,55,11.40
2020,12,04,12,56,11.40
2020,12,04,12,57,11.40
2020,12,04,12,58,11.30
2020,12,04,12,59,11.20
2020,12,04,13,00,11.20
2020,12,04,13,01,11.20
2020,12,04,13,02,11.20
2020,12,04,13,03,11.10
2020,12,04,13,04,11.10
2020,12,04,13,05,11.10
2020,12,04,13,06,11.10
2020,12,04,13,07,11.10
2020,12,04,13,08,11.20
2020,12,04,13,09,11.20
2020,12,04,13,10,11.30
2020,12,04,13,11,11.40
2020,12,04,13,12,11.50
2020,12,04,13,13,11.60
2020,12,04,13,14,11.70
2020,12,04,13,15,11.80
2020,12,04,13,16,11.80
2020,12,04,13,17,11.70
2020,12,04,13,18,11.70
2020,12,04,13,19,11.70
2020,12,04,13,20,11.70
2020,12,04,13,21,11.70
2020,12,04,13,22,11.70
2020,12,04,13,23,11.70
2020,12,04,13,24,11.70
2020,12,04,13,25,11.80
2020,12,04,13,26,11.80
2020,12,04,13,27,11.80
2020,12,04,13,28,11.80
2020,12,04,13,29,11.80
2020,12,04,13,30,11.80
2020,12,04,13,31,11.80
2020,12,04,13,32,11.80
2020,12,04,13,33,11.80
2020,12,04,13,34,11.80
2020,12,04,13,35,11.80
2020,12,04,13,36,11.90
2020,12,04,13,37,11.80
2020,12,04,13,38,11.80
2020,12,04,13,39,11.80
2020,12,04,13,40,11.80
2020,12,04,13,41,11.90
2020,12,04,13,42,11.90
2020,12,04,13,43,12.00
2020,12,04,13,44,12.00
2020,12,04,13,45,12.10
2020,12,04,13,46,12.10
2020,12,04,13,47,12.10
2020,12,04,13,48,12.10
2020,12,04,13,49,12.10
2020,12,04,13,50,12.10
2020,12,04,13,51,12.10
2020,12,04,13,52,12.10
2020,12,04,13,53,12.10
2020,12,04,13,54,12.00
2020,12,04,13,55,12.00
2020,12,04,13,56,11.90
2020,12,04,13,57,11.90
2020,12,04,13,58,11.90
2020,12,04,13,59,11.90
2020,12,04,14,00,12.00
2020,12,04,14,01,12.00
2020,12,04,14,02,12.00
2020,12,04,14,03,12.00
2020,12,04,14,04,12.00
2020,12,04,14,05,12.00
2020,12,04,14,06,12.00
2020,12,04,14,07,12.00
2020,12,04,14,08,12.00
2020,12,04,14,09,12.00
2020,12,04,14,10,12.00
2020,12,04,14,11,12.00
2020,12,04,14,12,12.00
2020,12,04,14,13,12.00
2020,12,04,14,14,12.00
2020,12,04,14,15,12.00
2020,12,04,14,16,12.00
2020,12,04,14,17,12.00
2020,12,04,14,18,12.00
2020,12,04,14,19,12.00
2020,12,04,14,20,11.90
2020,12,04,14,21,11.90
2020,12,04,14,22,12.00
2020,12,04,14,23,11.90
2020,12,04,14,24,11.90
2020,12,04,14,25,11.90
2020,12,04,14,26,11.80
2020,12,04,14,27,11.80
2020,12,04,14,28,11.90
2020,12,04,14,29,11.90
2020,12,04,14,30,11.90
2020,12,04,14,31,11.90
2020,12,04,14,32,11.80
2020,12,04,14,33,11.80
2020,12,04,14,34,11.90
2020,12,04,14,35,11.90
2020,12,04,14,36,11.90
2020,12,04,14,37,11.90
2020,12,04,14,38,11.90
2020,12,04,14,39,12.00
2020,12,04,14,40,12.00
2020,12,04,14,41,12.00
2020,12,04,14,42,11.90
2020,12,04,14,43,11.90
2020,12,04,14,44,11.80
2020,12,04,14,45,11.80
2020,12,04,14,46,11.80
2020,12,04,14,47,11.80
2020,12,04,14,48,11.80
2020,12,04,14,49,11.80
2020,12,04,14,50,11.80
2020,12,04,14,51,11.80
2020,12,04,14,52,11.90
2020,12,04,14,53,11.90
2020,12,04,14,54,11.80
2020,12,04,14,55,11.80
2020,12,04,14,56,11.80
2020,12,04,14,57,11.80
2020,12,04,14,58,11.80
2020,12,04,14,59,11.80
2020,12,04,15,00,11.80
2020,12,04,15,01,11.80
2020,12,04,15,02,11.80
2020,12,04,15,03,11.80
2020,12,04,15,04,11.80
2020,12,04,15,05,11.80
2020,12,04,15,06,11.80
2020,12,04,15,07,11.80
2020,12,04,15,08,11.80
2020,12,04,15,09,11.80
2020,12,04,15,10,11.80
2020,12,04,15,11,11.80
2020,12,04,15,12,11.80
2020,12,04,15,13,11.70
2020,12,04,15,14,11.70
2020,12,04,15,15,11.70
2020,12,04,15,16,11.70
2020,12,04,15,17,11.70
2020,12,04,15,18,11.70
2020,12,04,15,19,11.60
2020,12,04,15,20,11.60
2020,12,04,15,21,11.60
2020,12,04,15,22,11.60
2020,12,04,15,23,11.60
2020,12,04,15,24,11.60
2020,12,04,15,25,11.60
2020,12,04,15,26,11.60
2020,12,04,15,27,11.60
2020,12,04,15,28,11.60
2020,12,04,15,29,11.60
2020,12,04,15,30,11.60
2020,12,04,15,31,11.60
2020,12,04,15,32,11.50
2020,12,04,15,33,11.40
2020,12,04,15,34,11.40
2020,12,04,15,35,11.40
2020,12,04,15,36,11.30
2020,12,04,15,37,11.30
2020,12,04,15,38,11.20
2020,12,04,15,39,11.10
2020,12,04,15,40,11.10
2020,12,04,15,41,11.10
2020,12,04,15,42,11.10
2020,12,04,15,43,11.00
2020,12,04,15,44,10.90
2020,12,04,15,45,10.90
2020,12,04,15,46,10.90
2020,12,04,15,47,10.90
2020,12,04,15,48,10.90
2020,12,04,15,49,10.90
2020,12,04,15,50,10.80
2020,12,04,15,51,10.80
2020,12,04,15,52,10.70
2020,12,04,15,53,10.70
2020,12,04,15,54,10.70
2020,12,04,15,55,10.60
2020,12,04,15,56,10.60
2020,12,04,15,57,10.60
2020,12,04,15,58,10.60
2020,12,04,15,59,10.60
2020,12,04,16,00,10.50
2020,12,04,16,01,10.40
2020,12,04,16,02,10.40
2020,12,04,16,03,10.40
2020,12,04,16,04,10.40
2020,12,04,16,05,10.40
2020,12,04,16,06,10.40
2020,12,04,16,07,10.30
2020,12,04,16,08,10.30
2020,12,04,16,09,10.20
2020,12,04,16,10,10.20
2020,12,04,16,11,10.20
2020,12,04,16,12,10.10
2020,12,04,16,13,10.10
2020,12,04,16,14,10.10
2020,12,04,16,15,10.00
2020,12,04,16,16,9.90
2020,12,04,16,17,9.90
2020,12,04,16,18,9.80
2020,12,04,16,19,9.80
2020,12,04,16,20,9.70
2020,12,04,16,21,9.60
2020,12,04,16,22,9.50
2020,12,04,16,23,9.40
2020,12,04,16,24,9.30
2020,12,04,16,25,9.20
2020,12,04,16,26,9.20
2020,12,04,16,27,9.10
2020,12,04,16,28,9.00
2020,12,04,16,29,8.90
2020,12,04,16,30,8.90
2020,12,04,16,31,8.80
2020,12,04,16,32,8.70
2020,12,04,16,33,8.70
2020,12,04,16,34,8.60
2020,12,04,16,35,8.50
2020,12,04,16,36,8.50
2020,12,04,16,37,8.40
2020,12,04,16,38,8.30
2020,12,04,16,39,8.30
2020,12,04,16,40,8.20
2020,12,04,16,41,8.20
2020,12,04,16,42,8.20
2020,12,04,16,43,8.10
2020,12,04,16,44,8.10
2020,12,04,16,45,8.00
2020,12,04,16,46,8.00
2020,12,04,16,47,7.90
2020,12,04,16,48,7.90
2020,12,04,16,49,7.80
2020,12,04,16,50,7.80
2020,12,04,16,51,7.70
2020,12,04,16,52,7.60
2020,12,04,16,53,7.60
2020,12,04,16,54,7.50
2020,12,04,16,55,7.40
2020,12,04,16,56,7.40
2020,12,04,16,57,7.30
2020,12,04,16,58,7.30
2020,12,04,16,59,7.20
2020,12,04,17,00,7.20
2020,12,04,17,01,7.10
2020,12,04,17,02,7.10
2020,12,04,17,03,7.00
2020,12,04,17,04,6.90
2020,12,04,17,05,6.90
2020,12,04,17,06,6.80
2020,12,04,17,07,6.80
2020,12,04,17,08,6.80
2020,12,04,17,09,6.80
2020,12,04,17,10,6.70
2020,12,04,17,11,6.70
2020,12,04,17,12,6.70
2020,12,04,17,13,6.60
2020,12,04,17,14,6.60
2020,12,04,17,15,6.60
2020,12,04,17,16,6.60
2020,12,04,17,17,6.60
2020,12,04,17,18,6.40
2020,12,04,17,19,6.40
2020,12,04,17,20,6.40
2020,12,04,17,21,6.40
2020,12,04,17,22,6.30
2020,12,04,17,23,6.30
2020,12,04,17,24,6.30
2020,12,04,17,25,6.20
2020,12,04,17,26,6.20
2020,12,04,17,27,6.20
2020,12,04,17,28,6.20
2020,12,04,17,29,6.20
2020,12,04,17,30,6.10
2020,12,04,17,31,6.10
2020,12,04,17,32,6.10
2020,12,04,17,33,6.00
2020,12,04,17,34,6.00
2020,12,04,17,35,5.90
2020,12,04,17,36,5.90
2020,12,04,17,37,5.90
2020,12,04,17,38,5.80
2020,12,04,17,39,5.70
2020,12,04,17,40,5.70
2020,12,04,17,41,5.70
2020,12,04,17,42,5.70
2020,12,04,17,43,5.60
2020,12,04,17,44,5.60
2020,12,04,17,45,5.50
2020,12,04,17,46,5.50
2020,12,04,17,47,5.50
2020,12,04,17,48,5.40
2020,12,04,17,49,5.40
2020,12,04,17,50,5.30
2020,12,04,17,51,5.30
2020,12,04,17,52,5.30
2020,12,04,17,53,5.30